Date String (YYYY-MM-DD hh:mm:ss) UTC,Instrument flags,Ambient pressure (hPa),Sample flow (lpm),Bypass flow (lpm),Sample temperature (°C),Ambient temperature (°C),ASC tube jacket temperature (°C),LED temperature (°C),Box temperature (°C),Sample RH (%),Span deviation,Mass concentration (μg/m³),Mass concentration (μg/m³),Mass concentration (μg/m³)
DateTimeUTC,F1_M11,P_M11,Q1_M11,Q2_M11,T1_M11,T2_M11,T3_M11,T4_M11,T5_M11,U1_M11,ZSPAN_M11,X2_M11,X0_M11,X1_M11
2021-12-08 16:00:00,,0819.1,5.00,0.00,23.6,22.9,00.0,32.5,25.4,11.4,0000.0,0004.79,0015.66,0003.31
2021-12-08 16:01:00,,0819.2,4.98,0.00,23.6,22.9,00.0,32.5,25.4,11.3,0000.0,0004.81,0015.12,0003.29
2021-12-08 16:02:00,,0819.1,5.01,0.00,23.6,22.9,00.0,32.5,25.5,11.2,0000.0,0004.88,0015.12,0003.28
2021-12-08 16:03:00,,0819.1,4.98,0.00,23.6,22.9,00.0,32.5,25.5,11.2,0000.0,0004.88,0015.09,0003.25
2021-12-08 16:04:00,,0819.1,5.01,0.00,23.6,23.0,00.0,32.6,25.5,11.2,0000.0,0004.83,0014.18,0003.24
2021-12-08 16:05:00,,0819.1,5.01,0.00,23.7,23.0,00.0,32.6,25.5,11.3,0000.0,0004.79,0013.77,0003.22
2021-12-08 16:06:00,,0819.1,4.99,0.00,23.7,23.0,00.0,32.6,25.5,11.3,0000.0,0004.72,0013.48,0003.21
2021-12-08 16:07:00,,0819.1,5.00,0.00,23.7,23.0,00.0,32.6,25.5,11.3,0000.0,0004.66,0013.99,0003.19
2021-12-08 16:08:00,,0819.1,5.00,0.00,23.7,23.0,00.0,32.6,25.5,11.3,0000.0,0004.64,0013.26,0003.18
2021-12-08 16:09:00,,0819.2,5.01,0.00,23.7,23.0,00.0,32.6,25.5,11.3,0000.0,0004.64,0013.80,0003.17
2021-12-08 16:10:00,,0819.1,4.99,0.00,23.7,23.0,00.0,32.6,25.5,11.4,0000.0,0004.58,0013.39,0003.15
2021-12-08 16:11:00,,0819.1,5.01,0.00,23.7,23.0,00.0,32.6,25.5,11.4,0000.0,0004.60,0013.33,0003.15
2021-12-08 16:12:00,,0819.1,5.00,0.00,23.7,23.0,00.0,32.7,25.6,11.3,0000.0,0004.61,0013.44,0003.15
2021-12-08 16:13:00,,0819.0,4.99,0.00,23.8,23.1,00.0,32.7,25.6,11.3,0000.0,0004.65,0014.47,0003.16
2021-12-08 16:14:00,,0819.0,5.01,0.00,23.8,23.1,00.0,32.7,25.6,11.4,0000.0,0004.62,0015.54,0003.18
2021-12-08 16:15:00,,0819.0,4.99,0.00,23.8,23.0,00.0,32.7,25.6,11.4,0000.0,0004.71,0016.31,0003.20
2021-12-08 16:16:00,,0819.0,5.01,0.00,23.8,23.0,00.0,32.7,25.6,11.3,0000.0,0004.70,0016.21,0003.20
2021-12-08 16:17:00,,0819.0,5.00,0.00,23.8,23.1,00.0,32.7,25.6,11.4,0000.0,0004.73,0016.39,0003.20
2021-12-08 16:18:00,,0819.0,4.99,0.00,23.8,23.1,00.0,32.7,25.6,11.4,0000.0,0004.81,0017.22,0003.21
2021-12-08 16:19:00,,0819.1,4.99,0.00,23.8,23.1,00.0,32.7,25.6,11.4,0000.0,0004.88,0017.39,0003.23
2021-12-08 16:20:00,,0819.1,5.00,0.00,23.8,23.1,00.0,32.8,25.6,11.4,0000.0,0004.97,0017.12,0003.25
2021-12-08 16:21:00,,0819.1,5.01,0.00,23.8,23.1,00.0,32.8,25.6,11.4,0000.0,0004.98,0017.31,0003.27
2021-12-08 16:22:00,,0819.1,5.00,0.00,23.9,23.1,00.0,32.8,25.6,11.4,0000.0,0004.99,0018.24,0003.28
2021-12-08 16:23:00,,0819.1,4.99,0.00,23.9,23.1,00.0,32.8,25.6,11.5,0000.0,0004.98,0018.42,0003.28
2021-12-08 16:24:00,,0819.1,4.99,0.00,23.9,23.1,00.0,32.8,25.7,11.5,0000.0,0004.92,0017.74,0003.30
2021-12-08 16:25:00,,0819.0,5.01,0.00,23.9,23.1,00.0,32.8,25.7,11.6,0000.0,0004.99,0016.79,0003.32
2021-12-08 16:26:00,,0819.0,5.00,0.00,23.9,23.1,00.0,32.8,25.6,11.6,0000.0,0005.01,0017.29,0003.34
2021-12-08 16:27:00,,0819.1,4.99,0.00,23.9,23.0,00.0,32.8,25.6,11.6,0000.0,0005.11,0018.30,0003.37
2021-12-08 16:28:00,,0819.1,5.00,0.00,23.9,23.0,00.0,32.8,25.6,11.6,0000.0,0005.20,0018.36,0003.40
2021-12-08 16:29:00,,0819.1,5.00,0.00,23.9,23.0,00.0,32.8,25.6,11.7,0000.0,0005.32,0018.50,0003.44
2021-12-08 16:30:00,,0819.1,5.00,0.00,23.9,23.0,00.0,32.8,25.6,11.7,0000.0,0005.37,0018.61,0003.47
2021-12-08 16:31:00,,0819.1,5.01,0.00,23.9,23.0,00.0,32.8,25.6,11.7,0000.0,0005.44,0018.95,0003.51
2021-12-08 16:32:00,,0819.0,4.99,0.00,23.9,23.0,00.0,32.8,25.6,11.7,0000.0,0005.52,0020.76,0003.55
2021-12-08 16:33:00,,0819.0,5.01,0.00,23.9,23.0,00.0,32.8,25.6,11.7,0000.0,0005.62,0022.10,0003.60
2021-12-08 16:34:00,,0819.0,5.00,0.00,23.9,23.0,00.0,32.8,25.6,11.9,0000.0,0005.77,0022.55,0003.67
2021-12-08 16:35:00,,0819.0,5.00,0.00,23.9,23.0,00.0,32.8,25.6,11.8,0000.0,0005.98,0023.35,0003.74
2021-12-08 16:36:00,,0819.0,4.99,0.00,23.9,23.0,00.0,32.8,25.6,11.8,0000.0,0006.03,0024.00,0003.77
2021-12-08 16:37:00,,0818.9,5.01,0.00,23.9,23.0,00.0,32.8,25.7,11.7,0000.0,0006.09,0023.92,0003.78
2021-12-08 16:38:00,,0818.9,5.00,0.00,23.9,23.0,00.0,32.8,25.6,11.7,0000.0,0006.10,0023.03,0003.80
2021-12-08 16:39:00,,0818.9,4.99,0.00,23.9,23.0,00.0,32.8,25.6,11.7,0000.0,0006.06,0023.83,0003.82
2021-12-08 16:40:00,,0818.9,5.00,0.00,23.9,23.1,00.0,32.8,25.7,11.8,0000.0,0006.04,0024.11,0003.83
2021-12-08 16:41:00,,0818.9,4.99,0.00,23.9,23.1,00.0,32.9,25.7,11.9,0000.0,0006.12,0024.10,0003.85
2021-12-08 16:42:00,,0818.9,5.01,0.00,23.9,23.1,00.0,32.9,25.7,11.9,0000.0,0006.06,0023.66,0003.85
2021-12-08 16:43:00,,0818.9,4.99,0.00,23.9,23.1,00.0,32.9,25.7,11.8,0000.0,0005.98,0021.68,0003.83
2021-12-08 16:44:00,,0818.9,5.00,0.00,23.9,23.1,00.0,32.9,25.7,11.7,0000.0,0005.91,0019.74,0003.81
2021-12-08 16:45:00,,0818.9,5.00,0.00,23.9,23.1,00.0,32.9,25.7,11.6,0000.0,0005.75,0019.16,0003.76
2021-12-08 16:46:00,,0818.9,5.02,0.00,23.9,23.1,00.0,32.9,25.7,11.6,0000.0,0005.59,0017.92,0003.71
2021-12-08 16:47:00,,0818.9,4.99,0.00,23.9,23.1,00.0,32.9,25.7,11.6,0000.0,0005.48,0018.36,0003.66
2021-12-08 16:48:00,,0818.9,4.99,0.00,24.0,23.1,00.0,32.9,25.7,11.4,0000.0,0005.32,0018.49,0003.62
2021-12-08 16:49:00,,0818.8,5.01,0.00,24.0,23.1,00.0,32.9,25.7,11.2,0000.0,0005.17,0017.24,0003.56
2021-12-08 16:50:00,,0818.8,4.99,0.00,24.0,23.2,00.0,32.9,25.7,11.0,0000.0,0005.09,0015.91,0003.51
2021-12-08 16:51:00,,0818.8,5.01,0.00,24.0,23.2,00.0,32.9,25.8,11.1,0000.0,0004.95,0014.87,0003.44
2021-12-08 16:52:00,,0818.8,4.99,0.00,24.0,23.2,00.0,32.9,25.9,11.5,0000.0,0004.81,0014.49,0003.39
2021-12-08 16:53:00,,0818.8,5.00,0.00,24.0,23.2,00.0,32.9,25.9,11.9,0000.0,0004.93,0016.26,0003.41
2021-12-08 16:54:00,,0818.8,5.01,0.00,24.0,23.2,00.0,32.9,25.9,11.9,0000.0,0005.10,0017.27,0003.46
2021-12-08 16:55:00,,0818.8,5.01,0.00,24.0,23.2,00.0,32.9,25.8,11.9,0000.0,0005.19,0018.30,0003.50
2021-12-08 16:56:00,,0818.8,5.00,0.00,24.0,23.1,00.0,32.9,25.7,11.9,0000.0,0005.24,0019.19,0003.54
2021-12-08 16:57:00,,0818.8,5.00,0.00,24.0,23.1,00.0,32.9,25.7,11.9,0000.0,0005.35,0021.04,0003.58
2021-12-08 16:58:00,,0818.8,5.00,0.00,24.0,23.1,00.0,32.9,25.7,11.9,0000.0,0005.50,0021.10,0003.65
2021-12-08 16:59:00,,0818.8,4.99,0.00,24.0,23.1,00.0,32.9,25.7,11.9,0000.0,0005.66,0022.33,0003.72
